[[{"header":{"parameterUnit":"m.s-1","parameterCategory":1,"la1":30.2991,"la2":30.254,"lo1":-89.0895,"lo2":-89.0444,"dy":0.0017,"dx":0.0017,"nx":28,"ny":28,"refTime":"2025-01-30T09:00:00:Z","depth":0,"parameterNumber":2,"parameterNumberName":"U-component_of_WINDS"},"data":[0,0,0,0,0,0,0,0,0,0,0,0,0,0,0,0,0,0,0,0,0,0,0,0,0,0,0,0,0,0,0,0,0,0,0,0,0,0,0,0,0,0,0,0,0,0,0,0,0,0,0,0,0,0,0,0,0,0,-3.8594,-3.8595,0,-3.8753,-3.8755,-3.8756,-3.8805,-3.8804,-3.8803,-3.8802,-3.8966,-3.8971,-3.8976,0,0,0,0,0,0,0,0,0,0,0,0,0,-3.8333,-3.8338,-3.8594,-3.8596,-3.8598,-3.8752,-3.8755,-3.8757,-3.8805,-3.8804,-3.8803,-3.8802,-3.8965,-3.8971,-3.8977,0,0,0,0,0,0,0,0,0,0,0,0,0,-3.8465,-3.8339,-3.8593,-3.864,-3.8646,-3.8752,-3.8755,-3.8757,-3.8805,-3.8804,-3.8803,-3.8801,-3.8963,-3.897,-3.8978,-3.9049,0,0,-3.9001,-3.9004,0,0,0,0,0,0,0,0,-3.8457,-3.8474,-3.8631,-3.8637,-3.8644,-3.8758,-3.8723,-3.8855,-3.8805,-3.8745,-3.8802,-3.8801,-3.8898,-3.8911,-3.8943,-3.9057,-3.9064,-3.9002,-3.9006,-3.901,-3.9012,0,0,0,0,0,0,0,-3.8448,-3.8468,-3.8657,-3.8633,-3.8641,-3.8654,-3.8671,-3.8748,-3.8826,-3.875,-3.8754,-3.8772,-3.8901,-3.8936,-3.8948,-3.9066,-3.9002,-3.9008,-3.9013,-3.9016,-3.9246,-3.9248,0,0,0,0,0,0,-3.8431,-3.846,-3.8652,-3.8661,-3.8545,-3.8659,-3.8679,-3.8722,-3.8825,-3.884,-3.8773,-3.8773,-3.8923,-3.8939,-3.8953,-3.9043,-3.901,-3.9017,-3.9021,-3.9245,-3.9247,-3.9248,0,0,0,0,0,0,-3.8425,-3.8447,-3.8645,-3.8562,-3.8588,-3.8665,-3.8714,-3.8726,-3.8761,-3.8843,-3.8857,-3.8794,-3.8923,-3.8943,-3.9025,-3.905,-3.902,-3.9027,-3.9243,-3.9245,-3.9247,-3.9223,0,0,0,0,0,0,-3.8417,-3.8445,-3.8472,-3.8562,-3.8592,-3.8713,-3.8715,-3.873,-3.8774,-3.8776,-3.8866,-3.888,-3.8924,-3.9013,-3.9032,-3.906,-3.9033,-3.9241,-3.9244,-3.9247,-3.9222,-3.9224,-3.9226,0,0,0,0,0,-3.8408,-3.8459,-3.8473,-3.8496,-3.8628,-3.8714,-3.8732,-3.8781,-3.8776,-3.8804,-3.8857,-3.8877,-3.9044,-3.9021,-3.9043,-3.9073,-3.924,-3.9243,-3.9246,-3.9221,-3.9224,-3.9226,0,0,0,0,0,0,-3.8371,-3.8472,-3.8488,-3.8571,-3.8633,-3.8722,-3.8759,-3.8782,-3.8848,-3.8847,-3.8906,-3.8926,-3.9003,-3.9047,-3.902,-3.9148,-3.9143,-3.9151,-3.9116,-3.9119,-3.9121,-3.9108,-3.904,0,0,0,0,0,-3.8372,-3.8433,-3.8519,-3.8583,-3.8614,-3.8681,-3.8721,-3.8753,-3.8821,-3.8848,-3.8906,-3.8972,-3.9039,-3.9082,-3.9149,-3.923,-3.925,-3.9261,-3.9263,-3.9265,-3.927,-3.9316,-3.9322,-3.9259,-3.9259,-3.9259,0,0,-3.8375,-3.8438,-3.8474,-3.8577,-3.863,-3.8692,-3.8703,-3.8769,-3.8816,-3.8858,-3.8938,-3.8984,-3.9061,-3.9143,-3.9182,-3.9181,-3.9292,-3.9269,-3.9269,-3.9274,-3.932,-3.9326,-3.9331,-3.9262,-3.9261,-3.9261,0,0,-3.8413,-3.8467,-3.8526,-3.8579,-3.8658,-3.8703,-3.8717,-3.8803,-3.8835,-3.8917,-3.8949,-3.9007,-3.9122,-3.9175,-3.9217,-3.9277,-3.9297,-3.9297,-3.9307,-3.9351,-3.9356,-3.936,-3.9381,-3.9387,-3.9303,-3.9303,-3.9303,0,-3.8407,-3.8502,-3.8554,-3.8618,-3.8663,-3.8704,-3.8764,-3.8813,-3.891,-3.894,-3.8939,-3.9084,-3.9139,-3.9233,-3.9248,-3.9281,-3.9299,-3.9286,-3.9351,-3.9356,-3.9361,-3.9381,-3.9389,-3.9302,-3.9302,-3.9302,-3.9302,0,-3.8491,-3.8556,-3.8595,-3.8687,-3.8736,-3.8798,-3.886,-3.8904,-3.8932,-3.8977,-3.9061,-3.9128,-3.9209,-3.9234,-3.9263,-3.9333,-3.933,-3.9339,-3.9335,-3.9365,-3.9385,-3.9393,-3.9301,-3.9301,-3.9301,-3.9301,0,0,-3.8507,-3.8628,-3.8641,-3.8683,-3.8775,-3.8827,-3.8891,-3.897,-3.9006,-3.9072,-3.9127,-3.9224,-3.9233,-3.9281,-3.9317,-3.9356,-3.9397,-3.936,-3.9363,-3.9363,-3.9478,-3.9469,-3.9477,-3.9413,-3.9415,-3.9416,-3.9471,0,-3.8556,-3.8671,-3.872,-3.8813,-3.8874,-3.8915,-3.8971,-3.9033,-3.9077,-3.9136,-3.9186,-3.9253,-3.926,-3.9289,-3.933,-3.9383,-3.9421,-3.9381,-3.9464,-3.9467,-3.9441,-3.9488,-3.9479,-3.9527,-3.9479,-3.9481,-3.9482,0,-3.8626,-3.8692,-3.8791,-3.8875,-3.8902,-3.8952,-3.9028,-3.9084,-3.9156,-3.9186,-3.9239,-3.9273,-3.9343,-3.9336,-3.9432,-3.9404,-3.9442,-3.9473,-3.9477,-3.9485,-3.9474,-3.9495,-3.9544,-3.9551,-3.9494,-3.9493,-3.9492,0,-3.8627,-3.8741,-3.8814,-3.885,-3.895,-3.8983,-3.9027,-3.9098,-3.9142,-3.9209,-3.9239,-3.9313,-3.9354,-3.9411,-3.9465,-3.9455,-3.9556,-3.9554,-3.9583,-3.9581,-3.96,-3.9598,-3.9654,-3.9627,-3.9627,-3.9627,-3.9627,0,-3.8674,-3.8733,-3.8816,-3.8861,-3.8928,-3.8985,-3.905,-3.9096,-3.9159,-3.9214,-3.9256,-3.9307,-3.9375,-3.9435,-3.9478,-3.9551,-3.957,-3.9595,-3.9606,-3.9591,-3.9587,-3.9615,-3.9612,-3.9629,-3.9629,-3.9628,-3.9628,0,-3.8685,-3.8743,-3.8826,-3.8914,-3.8938,-3.8983,-3.9059,-3.9105,-3.9152,-3.9221,-3.9241,-3.9315,-3.9388,-3.9447,-3.9543,-3.9572,-3.9648,-3.9661,-3.9623,-3.9628,-3.9653,-3.9649,-3.9727,-3.974,-3.9706,-3.9706,-3.9706,0,-3.871,-3.8756,-3.8849,-3.8889,-3.8932,-3.8995,-3.9041,-3.9099,-3.9145,-3.9231,-3.9266,-3.9342,-3.9405,-3.9521,-3.9583,-3.9657,-3.9671,-3.9693,-3.9682,-3.9665,-3.9669,-3.9665,-3.967,-3.9693,-3.9693,-3.9693,-3.9693,0,-3.8749,-3.8775,-3.8839,-3.8912,-3.8965,-3.9026,-3.9088,-3.9119,-3.9189,-3.9238,-3.9313,-3.9362,-3.946,-3.9535,-3.9616,-3.9661,-3.9689,-3.9697,-3.9707,-3.9691,-3.9667,-3.9679,-3.9624,-3.9694,-3.9694,-3.9694,-3.9694,-3.9694,-3.8767,-3.8809,-3.8881,-3.8951,-3.9004,-3.9061,-3.9108,-3.9161,-3.9224,-3.9307,-3.9339,-3.9415,-3.9487,-3.9598,-3.9645,-3.9706,-3.9709,-3.9724,-3.9728,-3.973,-3.9727,-3.9658,-3.9721,-3.9721,-3.9721,-3.9721,-3.9721,0,-3.8806,-3.8855,-3.8918,-3.9003,-3.9058,-3.908,-3.915,-3.9194,-3.9261,-3.9325,-3.9387,-3.9473,-3.9546,-3.9615,-3.9692,-3.9727,-3.9742,-3.9745,-3.9743,-3.9753,-3.9721,-3.9704,-3.9732,-3.9732,-3.9732,-3.9732,-3.9732,-3.9732,-3.8833,-3.8905,-3.8941,-3.904,-3.9089,-3.9164,-3.9202,-3.9255,-3.9307,-3.9401,-3.9461,-3.9506,-3.9572,-3.9654,-3.9723,-3.9741,-3.9767,-3.9767,-3.9788,-3.9757,-3.9755,-3.9753,-3.9737,-3.9772,-3.9772,-3.9815,-3.9815,-3.9815]},{"header":{"parameterUnit":"m.s-1","parameterCategory":1,"la1":30.2991,"la2":30.254,"lo1":-89.0895,"lo2":-89.0444,"dy":0.0017,"dx":0.0017,"nx":28,"ny":28,"refTime":"2025-01-30T09:00:00:Z","depth":0,"parameterNumber":3,"parameterNumberName":"V-component_of_WINDS"},"data":[0,0,0,0,0,0,0,0,0,0,0,0,0,0,0,0,0,0,0,0,0,0,0,0,0,0,0,0,0,0,0,0,0,0,0,0,0,0,0,0,0,0,0,0,0,0,0,0,0,0,0,0,0,0,0,0,0,0,3.9977,3.9978,0,4.0074,4.0075,4.0076,4.011,4.011,4.0109,4.0109,4.021,4.0213,4.0216,0,0,0,0,0,0,0,0,0,0,0,0,0,3.9825,3.9827,3.9977,3.9978,3.9979,4.0074,4.0075,4.0077,4.011,4.011,4.0109,4.0109,4.0209,4.0213,4.0216,0,0,0,0,0,0,0,0,0,0,0,0,0,3.9903,3.9828,3.9977,4.0007,4.0011,4.0074,4.0075,4.0077,4.011,4.011,4.0109,4.0108,4.0208,4.0212,4.0217,4.0257,0,0,4.0231,4.0233,0,0,0,0,0,0,0,0,3.9899,3.9909,4.0002,4.0005,4.001,4.0079,4.0059,4.0137,4.011,4.0073,4.0109,4.0108,4.0167,4.0175,4.0195,4.0262,4.0266,4.0231,4.0234,4.0236,4.0237,0,0,0,0,0,0,0,3.9893,3.9905,4.0015,4.0003,4.0008,4.0018,4.0028,4.0074,4.0122,4.0076,4.0078,4.0089,4.0169,4.019,4.0197,4.0267,4.0231,4.0235,4.0238,4.024,4.0376,4.0377,0,0,0,0,0,0,3.9882,3.99,4.0012,4.0018,3.9951,4.0021,4.0033,4.0058,4.0122,4.0131,4.009,4.0091,4.0183,4.0192,4.0201,4.0255,4.0236,4.024,4.0243,4.0375,4.0376,4.0377,0,0,0,0,0,0,3.9879,3.9892,4.0008,3.996,3.9976,4.0024,4.0052,4.006,4.0081,4.0132,4.0141,4.0102,4.0183,4.0195,4.0244,4.0258,4.0242,4.0247,4.0374,4.0376,4.0377,4.036,0,0,0,0,0,0,3.9874,3.989,3.9905,3.996,3.9978,4.0048,4.0053,4.0062,4.0088,4.009,4.0146,4.0155,4.0183,4.0236,4.0248,4.0264,4.025,4.0373,4.0375,4.0376,4.036,4.0361,4.0362,0,0,0,0,0,3.9869,3.9896,3.9905,3.9919,3.9997,4.0049,4.0059,4.009,4.0089,4.0105,4.0139,4.0153,4.0255,4.0241,4.0254,4.0272,4.0372,4.0374,4.0376,4.0359,4.036,4.0362,0,0,0,0,0,0,3.9841,3.9903,3.9915,3.996,3.9999,4.0054,4.0075,4.009,4.0131,4.0131,4.0169,4.0181,4.0228,4.0255,4.0239,4.0317,4.0315,4.0319,4.0297,4.0299,4.03,4.0293,4.0254,0,0,0,0,0,3.984,3.9875,3.9929,3.9964,3.9983,4.0025,4.0049,4.007,4.0112,4.0129,4.0166,4.0207,4.0249,4.0275,4.0316,4.0364,4.0378,4.0383,4.0384,4.0385,4.0389,4.0419,4.0423,4.0384,4.0384,4.0384,0,0,3.9838,3.9877,3.9897,3.9959,3.9992,4.003,4.0039,4.0078,4.0107,4.0135,4.0184,4.0213,4.0261,4.0311,4.0334,4.0335,4.0403,4.0387,4.0387,4.0391,4.0422,4.0426,4.0429,4.0385,4.0385,4.0385,0,0,3.9855,3.9887,3.9921,3.9954,4.0003,4.0032,4.0041,4.0094,4.0115,4.0165,4.0187,4.0223,4.0293,4.0328,4.0355,4.0389,4.0404,4.0401,4.0407,4.0436,4.0439,4.0442,4.0457,4.0462,4.0404,4.0404,4.0404,0,3.9847,3.9904,3.9937,3.9976,4.0004,4.0031,4.0068,4.0098,4.0159,4.0178,4.0178,4.0269,4.0303,4.0363,4.0371,4.0391,4.0404,4.0395,4.0436,4.0439,4.0443,4.0457,4.0462,4.0404,4.0404,4.0404,4.0404,0,3.9893,3.9933,3.9955,4.0013,4.0043,4.008,4.0121,4.0149,4.0168,4.0198,4.025,4.0293,4.0344,4.036,4.0378,4.0423,4.0422,4.0428,4.0427,4.0445,4.046,4.0466,4.0403,4.0403,4.0403,4.0404,0,0,3.9893,3.9971,3.9979,4.0007,4.0065,4.0097,4.0138,4.0188,4.0212,4.0254,4.029,4.035,4.0358,4.0388,4.0411,4.0437,4.0465,4.0441,4.0443,4.0446,4.0521,4.0517,4.0522,4.0476,4.0477,4.0478,4.0517,0,3.9919,3.999,4.0023,4.0081,4.012,4.0148,4.0184,4.0225,4.0254,4.0293,4.0326,4.0369,4.0374,4.0393,4.042,4.0456,4.0481,4.0453,4.0512,4.0513,4.05,4.0529,4.0525,4.056,4.0523,4.0524,4.0525,0,3.9957,4.0,4.0062,4.0119,4.0137,4.0167,4.0219,4.0254,4.0303,4.0323,4.0358,4.0381,4.0427,4.0423,4.0488,4.0469,4.0495,4.0517,4.0519,4.0527,4.0521,4.054,4.0571,4.0577,4.0533,4.0533,4.0532,0,3.9954,4.0027,4.0074,4.0097,4.0164,4.0186,4.0215,4.0263,4.0292,4.0337,4.0358,4.0407,4.0435,4.0474,4.0511,4.0504,4.0574,4.0572,4.0594,4.0593,4.0607,4.0606,4.0645,4.0621,4.0621,4.0621,4.0621,0,3.998,4.0017,4.0074,4.0103,4.0147,4.0186,4.0228,4.026,4.0303,4.034,4.0368,4.0403,4.0449,4.0491,4.052,4.0572,4.0583,4.0602,4.061,4.0601,4.0598,4.0619,4.0618,4.0623,4.0622,4.0622,4.0622,0,3.9983,4.0022,4.0076,4.0136,4.0152,4.0182,4.0234,4.0265,4.0297,4.0345,4.0358,4.0409,4.046,4.0501,4.0566,4.0587,4.0641,4.0649,4.0625,4.0629,4.065,4.0648,4.0705,4.0716,4.0682,4.0683,4.0683,0,3.9997,4.0026,4.009,4.0118,4.0147,4.019,4.0221,4.0261,4.0293,4.0352,4.0376,4.0429,4.0474,4.0554,4.0598,4.065,4.066,4.0676,4.0668,4.0659,4.0663,4.0661,4.0666,4.0677,4.0677,4.0678,4.0678,0,4.0018,4.0038,4.008,4.0132,4.0168,4.0211,4.0253,4.0275,4.0323,4.0358,4.041,4.0445,4.0514,4.0567,4.0625,4.0656,4.0677,4.068,4.0689,4.068,4.0666,4.0677,4.063,4.0679,4.0679,4.0679,4.0679,4.0678,4.0029,4.0058,4.0108,4.0157,4.0194,4.0235,4.0268,4.0305,4.0349,4.0409,4.043,4.0485,4.0537,4.0615,4.0648,4.0693,4.0695,4.0706,4.0709,4.0712,4.0712,4.0658,4.0703,4.0703,4.0703,4.0703,4.0703,0,4.0054,4.0089,4.0133,4.0193,4.0232,4.0248,4.0297,4.0329,4.0377,4.0423,4.0467,4.053,4.0583,4.0632,4.0688,4.0715,4.0726,4.0728,4.0727,4.0735,4.0706,4.0694,4.0719,4.0719,4.0719,4.0719,4.0719,4.0719,4.0071,4.0122,4.0148,4.022,4.0255,4.0309,4.0336,4.0375,4.0413,4.0481,4.0526,4.0557,4.0606,4.0666,4.0717,4.073,4.075,4.0751,4.0767,4.0739,4.0737,4.0735,4.0724,4.0755,4.0755,4.0793,4.0793,4.0793]}]]